Hourly Data Report for January 12, 2018

All times are specified in Local Standard Time (LST). Add 1 hour to adjust for Daylight Saving Time where and when it is observed.

HALIFAX INTL A
NOVA SCOTIA

44°52'52.000" N
63°30'31.000" W
145.40 m
8202251
71395
YHZ

Download Data

Hourly Data (January 2018)
Hourly Data Report for January 12, 2018
Temp Definition
°C
Dew Point Temp Definition
°C
Rel Hum Definition
%
Wind Dir Definition
10's deg

Wind Spd Definition
km/h
Visibility Definition
km
Stn Press Definition
kPa
Hmdx Definition


Wind Chill Definition


Weather Definition


TIME
00:00 Legend Double Dagger 6.4 6.0 97 23 23 24.1 100.63     LegendNANA
01:00 Legend Double Dagger 6.8 6.2 96 22 17 24.1 100.63     LegendNANA
02:00 Legend Double Dagger 7.1 6.4 95 22 19 24.1 100.64     Mostly Cloudy
03:00 Legend Double Dagger 6.8 6.2 96 21 16 24.1 100.68     LegendNANA
04:00 Legend Double Dagger 6.5 5.5 94 22 19 24.1 100.65     LegendNANA
05:00 Legend Double Dagger 6.7 5.2 90 21 24 24.1 100.64     Mostly Cloudy
06:00 Legend Double Dagger 6.5 5.5 93 21 19 24.1 100.62     LegendNANA
07:00 Legend Double Dagger 6.1 5.7 97 21 23 24.1 100.59     LegendNANA
08:00 Legend Double Dagger 6.7 6.0 95 20 26 24.1 100.58     Mostly Cloudy
09:00 Legend Double Dagger 8.0 7.2 95 20 26 24.1 100.56     LegendNANA
10:00 Legend Double Dagger 9.6 8.5 93 20 27 24.1 100.54     LegendNANA
11:00 Legend Double Dagger 10.4 9.2 92 20 28 24.1 100.48     Mostly Cloudy
12:00 Legend Double Dagger 11.2 9.5 89 21 39 24.1 100.37     LegendNANA
13:00 Legend Double Dagger 11.4 10.2 92 21 37 24.1 100.25     LegendNANA
14:00 Legend Double Dagger 10.8 10.7 99 21 34 12.9 100.18     Cloudy
15:00 Legend Double Dagger 10.7 10.6 99 21 37 24.1 100.13     LegendNANA
16:00 Legend Double Dagger 10.4 10.4 100 21 41 1.2 100.13     Drizzle,Fog
17:00 Legend Double Dagger 11.7 11.7 100 21 38 4.8 100.10     Rain,Fog
18:00 Legend Double Dagger 11.6 11.6 100 22 42 3.2 100.06     Rain,Fog
19:00 Legend Double Dagger 12.1 11.9 99 21 42 3.2 100.01     Rain,Fog
20:00 Legend Double Dagger 11.8 11.3 97 21 40 6.4 99.91     Fog
21:00 Legend Double Dagger 12.4 11.3 93 20 46 6.4 99.87     Fog
22:00 Legend Double Dagger 12.9 12.1 95 20 44 4.8 99.79     Rain,Fog
23:00 Legend Double Dagger 12.8 12.5 98 20 44 2.4 99.74     Rain,Fog

Notes on Data Quality.

Legend

  • E = Estimated
  • M = Missing
  • NA = Not Available
  • ‡ = Partner data that is not subject to review by the National Climate Archives
Date modified: